Location: Marsån
(66.4167°N, 22.2833°E)
Time: 18:50:15
(UTC+00:00)

Daily predictions for brighter satellites

Satellite Brightness Start Highest point End
(mag) Time Altitude Azimuth Time Altitude Azimuth Time Altitude Azimuth
Cosmos 1570 Rocket 4.1 16:08:13 10° NW 16:13:34 71° NE 16:18:51 10° SE
GP-B 3.2 16:09:16 10° SSE 16:13:36 57° E 16:17:57 10° N
SL-16 R/B 2.3 16:08:38 10° NW 16:14:22 82° NNE 16:20:05 10° ESE
Cosmos 2058 3.2 16:11:52 10° S 16:15:46 45° E 16:19:42 10° NNE
Cosmos 2251 Rocket 3.7 16:13:19 10° SSW 16:18:35 59° ESE 16:23:49 10° NE
Cosmos-2242 3.3 16:14:13 10° NNW 16:18:36 77° WSW 16:22:57 10° S
SPOT 1/Viking Rocket 3.9 16:13:43 10° ESE 16:18:37 45° NE 16:23:32 10° NNW
Geosat 4.2 16:15:52 10° ESE 16:20:49 60° NNE 16:25:46 10° NW
Cosmos 2233 Rocket 4.2 16:16:21 10° SSE 16:22:28 53° E 16:28:35 10° NNE
Helios 1A 3.7 16:22:12 10° NNE 16:25:57 32° E 16:29:41 10° SSE
PSLV R/B 4.4 16:22:49 10° ESE 16:26:03 31° NE 16:29:15 10° N
Cosmos 2322 4.0 16:20:49 10° WNW 16:26:28 57° N 16:32:07 10° E
Meteor PRIRODA 3.4 16:24:13 10° SSE 16:27:39 86° ENE 16:31:07 10° NNW
Cosmos 2333 4.3 16:22:51 10° WNW 16:28:31 66° NNE 16:34:07 10° ESE
CZ-4B R/B 3.3 16:24:31 10° SE 16:29:51 57° NE 16:35:19 10° NNW
YAOGAN 11 4.0 16:26:09 10° NNE 16:30:28 70° ESE 16:34:49 10° SSW
Cosmos 2292 Rocket 3.8 16:28:27 10° NNW 16:32:18 75° WSW 16:37:18 10° S
Meteor 2-3 Rocket 4.2 16:27:28 10° SSE 16:32:44 38° E 16:37:59 10° NNE
Cosmos 1892 Rocket 3.7 16:28:19 10° SSW 16:32:45 87° WNW 16:37:15 10° NNE
Cosmos 2322 Rocket 2.2 16:27:49 10° WNW 16:33:33 79° NNE 16:39:12 10° ESE
Cosmos 2026 Rocket 4.3 16:28:03 10° NNW 16:33:53 44° NE 16:39:47 10° SE
Cosmos 773 Rocket 4.3 16:28:45 10° NW 16:33:58 56° NNE 16:39:12 10° ESE
CZ-4 R/B 1.5 16:30:11 10° SE 16:34:05 52° ENE 16:38:05 10° NNW
Cosmos 1943 3.3 16:29:10 10° WSW 16:34:53 83° NNW 16:40:39 10° NE
ATLAS 2AS CENTAUR R/B 3.1 16:28:50 10° SW 16:35:57 58° SSE 16:42:44 10° ENE
Cosmos 1812 Rocket 3.8 16:32:26 10° NNW 16:36:47 73° WSW 16:41:06 10° S
Cosmos 1954 Rocket 4.3 16:33:02 10° S 16:37:55 45° ESE 16:42:52 10° NE
Cosmos 2173 Rocket 4.1 16:32:19 10° SSW 16:38:26 83° WNW 16:44:35 10° NNE
Cosmos 2221 2.4 16:34:33 10° NNW 16:38:49 68° ENE 16:43:03 10° SSE
Cosmos 1544 4.0 16:37:39 10° SE 16:39:53 19° E 16:42:07 10° NE
Cosmos 1933 3.5 16:36:26 10° NNW 16:40:28 80° WSW 16:44:27 10° SSE
Cosmos 1862 4.3 16:37:53 10° SE 16:40:58 23° E 16:44:03 10° NE
Okean 1 4.4 16:38:05 10° N 16:41:27 25° NE 16:44:45 10° ESE
Cosmos 220 Rocket 3.9 16:37:40 10° SW 16:41:51 86° NW 16:46:03 10° NE
YAOGAN 1 2.7 16:37:44 10° SSE 16:42:03 83° WSW 16:46:24 10° NNW
Cosmos 1833 Rocket 3.3 16:37:24 10° S 16:42:29 35° ESE 16:47:34 10° NE
Cosmos 1023 Rocket 4.5 16:40:24 10° SW 16:45:32 88° NW 16:50:44 10° NE
Cosmos 1437 Rocket 3.2 16:44:41 10° SSE 16:48:17 38° E 16:51:51 10° NNE
Cosmos 2016 Rocket 4.1 16:42:04 10° SSW 16:48:28 85° ESE 16:54:54 10° NNE
ERS-1 Rocket 4.1 16:45:56 11° E 16:49:49 27° NE 16:53:59 10° NNW
Cosmos 2237 4.4 16:44:38 10° NW 16:50:21 78° SW 16:56:04 10° SE
Cosmos 1626 Rocket 3.6 16:46:10 10° S 16:50:35 65° ESE 16:54:59 10° NNE
Cosmos 158 Rocket 3.8 16:45:48 10° NW 16:50:44 72° NE 16:55:36 10° SE
Cosmos 44 Rocket 3.5 16:45:32 10° WSW 16:50:46 75° S 16:55:24 13° E
Cosmos 2082 Rocket 3.4 16:48:36 10° SSE 16:52:39 21° ESE 16:56:45 10° ENE
Ariane Rocket 4.1 16:49:16 12° E 16:53:06 27° NE 16:57:19 10° NNW
CSL-04 Debris 4.2 16:50:15 10° SE 16:55:33 60° ENE 17:00:52 10° NNW
SKYMED 2 3.6 16:52:01 10° NNE 16:56:21 57° ESE 17:00:39 10° S
Meteor 2-15 4.4 16:50:36 10° SSW 16:56:40 86° ESE 17:02:49 10° NNE
Landsat 7 3.9 16:51:59 10° SSE 16:56:44 85° WSW 17:01:30 10° NNW
Cosmos 2084 3.7 16:53:01 10° WSW 16:56:44 49° S 16:59:50 14° ESE
Cosmos 1464 Rocket 4.4 16:52:02 10° SSE 16:57:42 39° E 17:03:20 10° NNE
Lacrosse 5 3.4 16:53:59 10° SSW 16:57:52 22° SSE 17:01:14 12° ESE
Cosmos 2151 4.1 16:54:41 10° SE 16:57:52 22° E 17:01:04 10° NE
Cosmos 1842 Rocket 3.6 16:53:42 10° NNW 16:57:59 57° ENE 17:02:16 10° SE
Cosmos 1725 Rocket 4.1 16:51:44 10° SSW 16:58:05 89° W 17:04:28 10° NNE
NOSS 0 Rocket 4.1 16:52:36 10° WNW 16:58:46 65° N 17:04:11 14° E
Cosmos 2360 Rocket 2.2 16:53:06 10° NW 16:58:47 84° NE 17:04:27 10° ESE
Cosmos 1092 Rocket 4.1 16:55:04 10° NNW 17:01:14 56° ENE 17:07:19 10° SE
SL-08 R/B 4.5 16:56:02 10° SSW 17:02:10 88° E 17:08:23 10° NNE
Cosmos 1758 Rocket 3.6 16:58:50 10° S 17:03:11 60° E 17:07:32 10° NNE
PAYLOAD B 4.3 16:58:11 10° SSE 17:03:43 89° WSW 17:09:17 10° NNW
Terra 3.0 17:01:14 14° E 17:04:15 25° NE 17:08:07 10° NNW
Lacrosse 4 Rocket 1.3 17:00:26 10° WNW 17:04:35 90° WSW 17:07:59 14° ESE
Resurs 1-3 3.5 17:00:46 10° SSE 17:05:08 81° ENE 17:09:32 10° NNW
CZ-4B DEB 4.4 17:00:17 10° SSE 17:05:45 77° WSW 17:11:18 10° NNW
JB-3 4.3 17:01:58 10° NNE 17:06:05 73° ESE 17:10:08 10° SSW
Cosmos 676 Rocket 4.1 17:03:05 10° SSW 17:08:09 56° ESE 17:13:14 10° NE
COSMOS 2406 4.3 17:03:54 10° SSE 17:08:15 23° ESE 17:12:38 10° ENE
Cosmos 2061 Rocket 4.0 17:02:18 10° SSW 17:08:32 87° ESE 17:14:47 10° NNE
SJ 16-02 2.8 17:06:10 10° SE 17:08:58 17° E 17:10:00 16° E
Feng Yun 1-1 Rocket 4.2 17:03:35 10° SE 17:09:07 75° ENE 17:14:34 10° NNW
COSMOS 2428 2.9 17:04:08 10° WNW 17:09:52 63° NNE 17:14:31 16° E
USA 186 1.9 17:07:19 10° SE 17:10:38 58° ENE 17:13:58 10° NNW
Cosmos 1626 4.1 17:09:35 10° NNE 17:10:57 12° NE 17:11:41 11° NE
Cosmos 1782 4.2 17:08:19 10° NNW 17:12:01 42° W 17:15:43 10° SSW
Meteor 1-27 Rocket 4.0 17:06:12 10° NNW 17:12:05 56° ENE 17:17:55 10° SE
BlueWalker 3 4.3 17:12:17 10° S 17:13:19 11° S 17:14:22 10° SSE
Cosmos 1602 Rocket 3.5 17:08:53 10° S 17:13:20 67° ESE 17:17:47 10° NNE
SL-16 R/B 3.9 17:07:46 10° NNE 17:13:21 37° NW 17:18:56 10° W
Nadezhda 4 Rocket 4.0 17:08:33 10° NNW 17:14:54 87° ENE 17:21:08 10° SSE
Cosmos 1538 Rocket 4.5 17:12:33 10° NW 17:17:48 50° NNE 17:21:43 17° E
Okean-O 2.9 17:14:21 11° SE 17:18:21 47° NE 17:22:37 10° NNW
Cosmos 1666 3.6 17:16:48 10° SE 17:19:40 23° E 17:22:31 10° NE
Meteor 1-19 Rocket 4.3 17:15:26 10° NNW 17:20:52 56° ENE 17:26:25 10° SE
RESURS DK-1 2.9 17:17:38 10° W 17:21:40 52° N 17:24:40 17° ENE
Cosmos 407 Rocket 3.6 17:16:33 10° SW 17:21:45 78° NW 17:27:02 10° NE
ATLAS CENTAUR R/B 3.7 17:17:09 10° WSW 17:22:31 28° S 17:25:18 14° SE
Cosmos 2333 Rocket 2.2 17:17:58 10° NW 17:23:42 87° SW 17:28:53 13° SE
NOSS 3-4 (A) 4.0 17:18:04 10° W 17:24:10 60° SSW 17:30:29 13° ESE
NOSS 3-4 (C) 4.0 17:18:09 10° W 17:24:16 61° SSW 17:30:35 13° ESE
Okean O Rocket 1.5 17:20:37 10° SSE 17:25:00 73° ENE 17:29:23 10° NNW
IRIDIUM 114 4.4 17:22:26 10° SSE 17:27:31 55° E 17:32:37 10° NNE
Cosmos 1980 4.0 17:22:42 10° WNW 17:28:20 58° N 17:32:26 19° E
CZ-4B R/B 4.0 17:24:13 10° S 17:28:24 51° WSW 17:32:42 10° NNW
CSL-04 Rocket 3.6 17:23:19 10° SSE 17:28:45 80° ENE 17:34:17 10° NNW
SJ-6B 2.9 17:25:22 10° SSE 17:29:01 70° WSW 17:32:42 10° NNW
SL-24 DEB 4.4 17:26:22 10° SSE 17:30:46 50° ENE 17:35:11 10° N
Resurs 01 Rocket 1.5 17:28:35 10° SSE 17:33:00 72° ENE 17:37:25 10° NNW
Meteor 2-6 Rocket 4.5 17:27:22 10° NNW 17:33:06 77° WSW 17:38:58 10° S
Meteor 1-29 2.6 17:32:05 10° S 17:34:01 46° WSW 17:35:59 10° NNW
IRIDIUM 103 4.3 17:31:30 10° SSE 17:36:39 61° E 17:41:49 10° N
Cosmos 2237 Rocket 2.5 17:31:19 10° WNW 17:36:55 58° NNE 17:40:47 20° E
Cosmos 1190 Rocket 4.0 17:31:42 10° SW 17:36:56 87° NW 17:42:11 10° NE
SPOT 5 3.2 17:35:18 21° ESE 17:37:56 42° NE 17:42:21 10° NNW
SL-08 R/B 3.3 17:34:30 10° NNE 17:39:22 69° ESE 17:44:07 10° SSW
Cosmos 1076 Rocket 4.1 17:36:59 10° SSE 17:40:48 34° E 17:44:40 10° NNE
Cosmos 1328 Rocket 4.4 17:37:11 10° NNW 17:41:05 31° NE 17:42:40 24° E
Cosmos 1378 4.0 17:39:50 10° NNW 17:43:09 47° W 17:46:27 10° S
Cosmos 1603 4.0 17:38:13 10° WSW 17:43:49 65° NNW 17:48:47 13° ENE
COSMO-SKYMED 1 2.8 17:40:07 10° NNE 17:44:29 76° WNW 17:48:50 10° SSW
Cosmos 1500 3.3 17:41:25 10° SSE 17:44:47 41° E 17:48:09 10° NNE
Cosmos 1680 Rocket 4.2 17:39:57 10° NW 17:45:00 43° NNE 17:48:06 22° E
Cosmos 1151 Rocket 3.2 17:41:15 10° NNW 17:45:25 48° ENE 17:47:42 24° SE
ASTEX 1 3.7 17:41:06 10° NNE 17:45:47 44° E 17:50:28 10° SSE
USA 215 4.1 17:42:19 19° ESE 17:46:04 33° SSE 17:51:55 10° SW
Cosmos 1980 Rocket 4.5 17:42:20 10° WNW 17:46:45 24° WSW 17:51:11 10° SSW
SKYMED 3 4.4 17:44:35 10° NNE 17:48:45 63° ESE 17:52:52 10° S
Cosmos 1825 Rocket 3.5 17:45:12 10° S 17:49:38 71° ESE 17:54:04 10° NNE
Cosmos 1140 Rocket 4.1 17:44:42 10° WSW 17:49:46 56° NNW 17:54:52 10° NE
SL-16 R/B 2.7 17:44:18 10° WNW 17:49:52 55° N 17:53:48 20° ENE
Okean 1-7 Rocket 3.9 17:45:25 10° SSW 17:49:54 72° WNW 17:54:23 10° NNE
H-2A R/B 4.3 17:48:42 16° ENE 17:50:04 18° NNE 17:53:01 10° N
Cosmos 2219 Rocket 2.2 17:44:34 10° NW 17:50:14 89° SW 17:54:08 21° SE
Cosmos 968 Rocket 3.8 17:45:22 10° S 17:50:16 41° ESE 17:55:11 10° NE
Cosmos 2058 4.1 17:48:32 10° SW 17:52:28 45° WNW 17:56:27 10° NNE
DELTA 2 DEB (DPAF) 4.5 17:48:44 10° NNE 17:52:46 38° E 17:56:48 10° SSE
Meteor 2-4 Rocket 3.9 17:47:45 10° NNW 17:53:05 51° NE 17:56:11 24° ESE
DMSP B5D1-3 4.5 17:48:11 10° NNE 17:53:20 64° ESE 17:58:27 10° S
Cosmos 1850 Rocket 4.1 17:48:42 10° SSW 17:53:48 56° ESE 17:58:58 10° NE
ADEOS Rocket 4.1 17:46:38 10° S 17:53:51 55° W 18:00:27 10° NNW
IRIDIUM 106 4.2 17:49:43 10° S 17:54:56 75° E 18:00:11 10° N
Cosmos 1634 Rocket 4.4 17:49:37 10° SSE 17:55:18 39° E 18:00:58 10° NNE
CARTOSAT-1 3.5 17:52:36 10° SSE 17:56:50 88° ENE 18:01:10 10° NNW
USA 245 4.2 17:55:01 28° ESE 17:56:52 44° NE 18:01:46 10° NNW
SPOT 1/Viking Rocket 4.0 17:52:50 10° S 17:57:57 64° WSW 18:03:07 10° NNW
SL-16 R/B 3.2 17:52:52 10° NW 17:58:17 46° WSW 18:03:40 10° SSE
Geosat 4.2 17:54:45 17° SE 17:58:41 72° SW 18:03:45 10° NW
SL-24 R/B 4.2 17:57:48 32° E 17:59:00 42° ENE 18:02:32 10° NNW
PSLV R/B 4.0 17:56:06 10° S 17:59:42 61° WSW 18:03:16 10° NNW
Cosmos 2251 Rocket 4.1 17:55:40 10° WSW 18:00:58 59° NW 18:06:15 10° NE
Cosmos 1953 Rocket 3.5 17:56:57 10° S 18:01:16 62° E 18:05:39 10° NNE
Helios 1A 3.3 17:57:21 10° NNE 18:01:28 66° WNW 18:05:34 10° SW
Cosmos 923 Rocket 4.4 17:56:28 10° NW 18:01:33 49° NNE 18:04:07 27° E
Meteor 1-18 Rocket 4.3 18:01:52 10° NNW 18:07:23 55° ENE 18:10:16 27° ESE
SPOT 3 Rocket 3.9 18:05:05 28° ESE 18:07:27 47° NE 18:12:27 10° NNW
CZ-4 R/B 2.8 18:05:09 10° SSW 18:08:57 39° W 18:12:48 10° NNW
IRS-1C Rocket 4.0 18:06:35 20° SE 18:10:17 75° ENE 18:15:34 10° NNW
CZ-4B R/B 4.0 18:05:14 10° S 18:10:34 54° WSW 18:16:02 10° NNW
Cosmos 2322 3.7 18:05:21 10° NW 18:11:06 89° NNE 18:14:18 28° SE
Landsat 4 3.4 18:10:04 34° SSE 18:11:31 82° ENE 18:15:04 10° NNW
Cosmos 389 Rocket 4.3 18:10:27 10° N 18:10:57 12° NNE 18:10:57 12° NNE
Cosmos 1544 2.7 18:09:32 10° SSW 18:12:36 74° WNW 18:15:41 10° NNE
Cosmos 1340 Rocket 3.4 18:09:08 10° NNW 18:12:46 36° NE 18:13:12 35° ENE
Cosmos 2333 4.4 18:07:15 10° NW 18:12:52 67° SW 18:16:41 21° SSE
Cosmos 1655 Rocket 4.3 18:08:02 10° NNW 18:14:10 49° ENE 18:17:13 28° ESE
IKONOS-2 4.4 18:10:08 10° NNE 18:14:19 64° ESE 18:18:28 10° S
Meteor 2-3 Rocket 4.0 18:09:53 10° SSW 18:15:41 76° WNW 18:21:27 10° NNE
Spot 2 Rocket 3.8 18:13:45 31° ESE 18:15:53 51° NE 18:20:52 10° NNW
Cosmos 2221 4.4 18:12:12 10° NNW 18:15:57 31° W 18:19:41 10° SSW
Cosmos 773 Rocket 4.3 18:10:49 10° NW 18:16:04 65° WSW 18:20:02 18° SSE
Cosmos 1862 3.2 18:12:37 10° SSW 18:16:29 81° WNW 18:20:21 10° NNE
Cosmos 2322 Rocket 3.0 18:12:00 10° NW 18:17:27 48° SW 18:22:25 12° SSE
Okean 1 3.2 18:13:52 10° NNW 18:17:52 90° WSW 18:19:57 27° SSE
Cosmos 1943 3.7 18:13:49 10° W 18:19:27 56° N 18:23:17 21° ENE
Cosmos 2026 Rocket 4.2 18:13:31 10° NNW 18:19:37 73° W 18:25:46 10° S
Cosmos 1954 Rocket 4.2 18:14:39 10° SW 18:19:49 70° NW 18:25:02 10° NE
Cosmos 1674 4.3 18:19:35 10° N 18:21:53 19° NE 18:21:53 19° NE
MOS 1 4.3 18:18:48 16° SSE 18:23:24 88° WSW 18:29:08 10° NNW
Cosmos 1437 Rocket 3.7 18:20:17 10° SW 18:24:03 49° WNW 18:27:47 10° NNE
Cosmos 1833 Rocket 2.6 18:20:18 10° SW 18:25:58 85° SE 18:30:58 14° NE
Cosmos 2034 Rocket 3.9 18:19:47 10° S 18:26:05 77° ESE 18:32:28 10° NNE
ATLAS 2AS CENTAUR R/B 2.8 18:19:21 10° W 18:26:33 73° S 18:30:11 30° ESE
ERS-1 Rocket 3.0 18:25:51 34° SE 18:27:58 64° ENE 18:32:58 10° NNW
Ariane Rocket 3.0 18:29:24 36° SE 18:31:25 63° ENE 18:36:28 10° NNW
Cosmos 44 Rocket 3.4 18:27:01 10° W 18:32:13 73° SSW 18:34:03 40° ESE
Cosmos 2151 2.8 18:30:18 10° SSW 18:34:28 86° ESE 18:38:41 10° NNE
Cosmos 2084 4.1 18:31:57 10° W 18:35:25 35° SSW 18:36:02 32° S
MOS 1-B Rocket 4.4 18:30:41 22° SSE 18:35:28 82° ENE 18:43:34 10° NNW
Cosmos 2082 Rocket 2.2 18:30:15 10° SSW 18:35:45 56° SE 18:40:26 15° NE
Cosmos 2112 Rocket 4.4 18:31:42 10° NW 18:36:55 53° NNE 18:38:44 36° E
Lacrosse 5 2.9 18:35:26 10° WSW 18:39:47 29° S 18:40:26 28° SSE
Meteor 2-12 Rocket 4.3 18:33:40 10° NNW 18:39:49 85° ENE 18:43:37 25° SSE
Terra 1.8 18:39:57 45° SE 18:41:17 66° ENE 18:46:00 10° NNW
Cosmos 2360 Rocket 3.1 18:37:14 10° NW 18:42:33 44° WSW 18:46:31 17° S
Lacrosse 4 Rocket 2.3 18:38:53 10° WNW 18:42:43 39° SW 18:43:59 30° S
Cosmos 1464 Rocket 4.1 18:36:37 10° SSW 18:42:49 76° WNW 18:49:01 10° NNE
Aureole 3 Rocket 4.4 18:36:19 10° S 18:42:52 69° E 18:51:47 10° NNE
USA 186 4.0 18:40:06 10° SSW 18:43:02 27° W 18:46:00 10° NNW
SL-08 ROCKET BODY 4.3 18:37:30 10° NNW 18:43:22 66° ENE 18:45:42 37° SE
Meteor 1-20 Rocket 4.4 18:40:40 23° SSE 18:44:04 50° E 18:49:34 10° NNE
Cosmos 1741 Rocket 3.9 18:38:53 10° SW 18:44:12 87° SE 18:49:31 10° NE
NOSS 0 Rocket 3.9 18:39:23 10° WNW 18:45:36 86° SW 18:48:10 38° SE
Cosmos 1626 3.2 18:42:43 10° N 18:44:57 30° NNE 18:44:57 30° NNE
SJ 16-02 1.3 18:42:17 10° SSW 18:46:35 58° ESE 18:47:01 55° E
ARIANE 5 R/B 3.7 18:46:42 29° NE 18:46:58 29° NE 18:50:46 10° NNW
Cosmos 921 Rocket 3.8 18:43:36 10° NW 18:47:29 35° NNE 18:48:01 34° NE
Cosmos 676 Rocket 4.5 18:45:09 10° WSW 18:50:17 60° NW 18:55:27 10° NE
BlueWalker 3 4.5 18:49:30 10° SSW 18:49:46 10° SSW 18:49:46 10° SSW
COSMOS 2406 3.2 18:46:03 10° SSW 18:51:39 61° SE 18:56:13 16° NE
Cosmos 1666 2.6 18:50:25 10° SSW 18:53:58 72° WNW 18:57:31 10° NNE
COSMOS 2428 2.8 18:48:38 10° NW 18:54:22 75° SW 18:56:31 40° SSE
Okean-O 3.4 18:51:50 19° S 18:54:49 51° WSW 18:59:10 10° NNW
Meteor 1-27 Rocket 4.4 18:49:45 10° NNW 18:55:34 56° W 19:01:20 10° S
SL-16 R/B 4.4 18:50:53 10° NE 18:55:43 25° NNW 19:00:32 10° WNW
Cosmos 2266 Rocket 3.9 18:51:33 10° NNW 18:57:57 84° ENE 19:01:00 33° SSE
IRS-1A Rocket 4.4 18:55:12 27° SSE 18:58:27 75° WSW 19:04:14 10° NNW
RESURS DK-1 2.5 18:55:49 10° WNW 18:59:54 62° NNE 19:00:18 58° NE
Cosmos 1538 Rocket 4.1 18:54:55 10° NW 19:00:19 80° SW 19:02:03 45° SSE
MetOp-B 4.3 18:57:29 26° S 19:00:33 70° WSW 19:05:57 10° NNW
Cosmos 2228 Rocket 4.4 18:57:16 10° NNW 19:01:15 28° NE 19:01:15 28° NE
Okean O Rocket 3.3 18:57:47 10° SSW 19:01:42 31° W 19:05:38 10° NNW
Cosmos 1515 Rocket 3.6 19:00:32 10° NNW 19:04:53 59° ENE 19:04:55 59° ENE
Cosmos 2333 Rocket 3.4 19:02:24 10° NW 19:07:36 37° WSW 19:10:54 20° S
CZ-4C R/B 3.9 19:05:02 10° NNE 19:08:03 47° NE 19:08:03 47° NE
Resurs 01 Rocket 3.3 19:05:53 10° SSW 19:09:50 32° W 19:13:49 10° NNW
Cosmos 1980 3.6 19:07:08 10° NW 19:12:52 90° NNE 19:14:16 54° SE
Cosmos 2142 Rocket 4.5 19:10:53 33° SSE 19:13:50 64° E 19:20:11 10° NNE
Cosmos 1602 3.8 19:13:35 61° WSW 19:13:56 66° WNW 19:17:36 10° NNE
SPOT 5 3.1 19:14:27 38° SSW 19:15:57 59° WSW 19:20:33 10° NNW
Cosmos 1076 Rocket 3.9 19:13:52 10° SSW 19:18:04 61° WNW 19:22:20 10° NNE
Cosmos 1328 Rocket 3.5 19:14:53 10° NNW 19:19:13 76° WSW 19:19:41 67° SSW
Cosmos 1500 4.3 19:16:03 10° SW 19:19:25 40° WNW 19:22:49 10° N
Cosmos 2237 Rocket 2.1 19:15:42 10° NW 19:21:24 88° SW 19:22:36 58° SE
ATLAS CENTAUR R/B 4.0 19:19:19 10° WSW 19:22:07 16° SW 19:22:10 16° SW
Cosmos 1707 4.1 19:19:23 10° N 19:21:37 28° NNE 19:21:37 28° NNE
Cosmos 1151 Rocket 4.0 19:18:53 10° NNW 19:22:56 44° W 19:24:29 30° SW
H-2A R/B 3.3 19:24:48 42° NE 19:24:48 42° NE 19:28:25 10° NNW
ASTEX 1 4.0 19:20:08 10° N 19:24:55 55° WNW 19:29:41 10° SSW
Cosmos 1680 Rocket 3.4 19:22:21 10° NW 19:27:41 81° NE 19:28:23 67° ESE
Cosmos 1603 4.2 19:23:05 10° WNW 19:28:37 54° N 19:30:39 36° ENE
USA 215 3.7 19:29:39 39° SSE 19:30:17 40° S 19:36:23 10° WSW
Cosmos 968 Rocket 3.6 19:26:35 10° SW 19:31:51 76° NW 19:37:07 10° NE
MetOp-A 4.0 19:31:23 62° SSE 19:32:18 86° WSW 19:37:30 10° NNW
USA 245 4.1 19:32:24 50° SW 19:33:08 57° WSW 19:38:09 10° NNW
Cosmos 2219 Rocket 3.2 19:28:40 10° NW 19:33:49 38° WSW 19:35:52 28° SSW
SL-16 R/B 2.2 19:28:56 10° WNW 19:34:37 71° NNE 19:35:40 57° E
Cosmos 1850 Rocket 4.4 19:30:45 10° WSW 19:35:57 61° NW 19:41:14 10° NE
Meteor 2-4 Rocket 4.1 19:30:56 10° NNW 19:36:15 56° W 19:38:16 35° SSW
Cosmos 1066 Rocket 4.1 19:34:41 10° NNW 19:40:09 76° WSW 19:41:10 58° S
Cosmos 1634 Rocket 4.0 19:34:10 10° SSW 19:40:24 77° WNW 19:46:37 10° NNE
Cosmos 923 Rocket 3.9 19:38:48 10° NW 19:44:01 77° SW 19:44:25 72° S
MOS 1 Rocket 3.4 19:46:16 77° ESE 19:46:29 80° ENE 19:51:35 10° NNW
SPOT 3 Rocket 3.8 19:45:42 50° SSW 19:46:49 63° WSW 19:52:01 10° NNW
Cosmos 1340 Rocket 3.6 19:45:18 10° NNW 19:48:28 48° WNW 19:48:28 48° WNW
SL-24 R/B - RUBIN 2 4.4 19:45:51 10° WSW 19:52:04 66° SSE 19:52:37 63° SE
Spot 2 Rocket 4.0 19:53:53 46° SW 19:54:55 55° WSW 19:59:59 10° NNW
Cosmos 2279 Rocket 3.9 19:51:31 27° SSW 19:55:12 83° WNW 20:01:30 10° NNE
Cosmos 1745 Rocket 4.1 19:49:33 10° NNW 19:55:47 57° ENE 19:56:21 55° E
Cosmos 1674 4.3 19:53:52 10° NNW 19:55:44 29° N 19:55:44 29° N
Cosmos 494 Rocket 4.0 19:52:15 10° NW 19:57:31 68° NE 19:57:36 68° NE
Nadezhda 2 Rocket 4.3 19:52:21 10° NNW 19:58:40 81° ENE 19:59:27 69° SE
Cosmos 1655 Rocket 4.2 19:53:55 10° NNW 20:00:10 65° W 20:02:10 43° SSW
Cosmos 2322 Rocket 4.5 19:56:45 10° WNW 20:00:19 17° W 20:03:52 10° SW
Meteor 1-25 Rocket 4.2 19:59:08 39° SSW 20:01:22 82° WNW 20:07:13 10° NNE
Cosmos 1943 3.4 19:58:31 10° WNW 20:04:13 62° NNE 20:05:04 55° ENE
In-Cosmos 22 4.0 19:59:41 10° NNW 20:04:50 75° NE 20:04:50 75° NE
ERS-1 Rocket 3.9 20:05:48 35° SW 20:07:02 42° W 20:11:50 10° NNW
ALOS 2 3.8 20:08:22 34° NNE 20:08:22 34° NNE 20:11:32 10° NNW
ARGOS Delta rocket 4.2 20:09:29 52° N 20:09:29 52° N 20:12:55 10° NNW
Cosmos 1833 Rocket 3.1 20:04:41 10° W 20:10:17 59° NNW 20:12:39 34° NE
Ariane Rocket 3.9 20:09:32 38° SW 20:10:37 43° W 20:15:31 10° NNW
Cosmos 1048 Rocket 4.1 20:07:12 10° NW 20:12:33 69° NE 20:12:33 69° NE
Cosmos 44 Rocket 4.2 20:08:30 10° WNW 20:12:43 41° WSW 20:12:43 41° WSW
ATLAS 2AS CENTAUR R/B 2.7 20:10:12 10° WNW 20:17:09 60° SSW 20:17:36 58° S
Cosmos 1244 Rocket 4.4 20:11:10 10° NNW 20:17:34 84° WSW 20:18:22 70° S
Meteor 1-21 4.4 20:12:01 10° NNW 20:17:39 61° NE 20:17:39 61° NE
Terra 2.9 20:18:39 36° WSW 20:19:12 38° W 20:23:39 10° NNW
Cosmos 2112 Rocket 4.1 20:14:01 10° NW 20:19:03 68° WSW 20:19:03 68° WSW
Cosmos 2082 Rocket 2.3 20:14:10 10° WSW 20:19:50 73° NNW 20:22:19 35° NE
Cosmos 1626 4.3 20:16:42 10° NNW 20:18:12 23° NW 20:18:12 23° NW
Lacrosse 4 Rocket 3.9 20:18:16 10° W 20:19:58 13° WSW 20:19:58 13° WSW
Lacrosse 5 3.8 20:17:43 10° WSW 20:19:39 18° SW 20:19:39 18° SW
ARIANE 5 R/B 3.4 20:24:10 50° NNW 20:24:10 50° NNW 20:27:27 10° NNW
SJ 16-02 2.5 20:20:51 10° WSW 20:30:38 - NE 20:24:01 40° W
Cosmos 921 Rocket 4.1 20:21:54 10° NW 20:24:43 42° NW 20:24:43 42° NW
SL-08 R/B 4.3 20:22:27 10° NNW 20:28:43 86° WSW 20:29:09 78° S
Meteor 1-13 Rocket 4.3 20:29:25 10° NNW 20:34:52 68° W 20:34:52 68° W
COSMOS 2406 3.4 20:30:19 10° WSW 20:36:01 70° NNW 20:38:19 37° NE
RESURS DK-1 4.0 20:33:44 10° WNW 20:35:57 30° WNW 20:35:57 30° WNW
SL-16 R/B 4.3 20:33:40 13° ENE 20:37:49 25° NNE 20:42:41 10° NW
COSMOS 2428 4.0 20:33:06 10° NW 20:38:01 30° WSW 20:38:30 30° WSW
Cosmos 2228 Rocket 4.1 20:35:25 10° NNW 20:38:42 46° NNW 20:38:42 46° NNW
Meteor 1-5 Rocket 4.3 20:47:41 73° NW 20:47:41 73° NW 20:53:00 10° NNE
Cosmos 1386 Rocket 4.4 20:49:05 10° NNW 20:54:56 79° WNW 20:54:56 79° WNW
Meteor 1-23 Rocket 4.4 20:52:01 10° NNW 20:57:27 70° WNW 20:57:27 70° WNW
H-2A R/B 4.0 21:00:53 35° NW 21:00:53 35° NW 21:03:36 10° NNW
Meteor 1-11 Rocket 4.5 21:06:24 46° NE 21:06:24 46° NE 21:10:41 10° NNE
Cosmos 2237 Rocket 3.2 20:59:54 10° NW 21:04:25 36° WSW 21:04:25 36° WSW
Cosmos 1709 Rocket 3.9 21:02:32 10° NNW 21:08:23 79° N 21:08:23 79° N
Cosmos 1603 4.0 21:07:41 10° WNW 21:12:31 64° NNW 21:12:31 64° NNW
Cosmos 1140 Rocket 4.5 21:10:21 10° NW 21:15:15 41° NNE 21:15:19 41° NNE
Cosmos 1553 Rocket 4.2 21:16:19 62° NE 21:16:19 62° NE 21:21:33 10° NNE
Cosmos 2219 Rocket 4.5 21:13:55 10° WNW 21:16:21 13° W 21:17:35 12° WSW
SL-16 R/B 2.9 21:13:13 10° NW 21:17:32 48° W 21:17:32 48° W
Cosmos 2074 Rocket 4.3 21:15:12 10° NNW 21:21:06 58° NE 21:21:06 58° NE
Cosmos 2285 Rocket 4.2 21:19:38 10° NW 21:26:00 64° NE 21:26:05 64° NE
Cosmos 2154 Rocket 4.3 21:28:04 10° NNW 21:34:03 58° NE 21:34:03 58° NE
Cosmos 2227 Rocket 4.4 21:38:40 14° ENE 21:38:40 14° ENE 21:39:37 10° NE
Cosmos 1745 Rocket 4.4 21:35:10 10° NNW 21:41:01 55° W 21:41:01 55° W
ALOS 2 4.4 21:45:45 30° NNW 21:45:45 30° NNW 21:48:04 10° NNW
Cosmos 2184 Rocket 4.2 21:37:41 10° NNW 21:43:28 66° NNE 21:43:28 66° NNE
Aureole 1 Rocket 4.3 21:45:45 78° E 21:45:45 78° E 21:52:40 10° NE
Meteor 2-5 Rocket 4.4 21:42:08 10° NNW 21:46:49 47° NNE 21:46:49 47° NNE
Cosmos 1943 3.9 21:42:49 10° NW 21:46:52 47° WNW 21:46:52 47° WNW
Cosmos 1833 Rocket 3.3 21:49:20 10° WNW 21:54:20 54° NNW 21:54:20 54° NNW
Terra 4.4 21:57:22 11° W 21:58:12 11° WNW 21:59:46 10° NW
S3M 4.2 22:01:14 66° NNE 22:01:14 66° NNE 22:06:39 10° NNE
Meteor 1-24 Rocket 4.5 21:58:59 10° NNW 22:03:00 45° N 22:03:00 45° N
SJ 16-02 3.9 22:00:31 10° WNW 22:07:24 14° NE 22:08:16 10° NE
Cosmos 2082 Rocket 2.8 21:58:57 10° W 22:04:13 54° NNW 22:04:13 54° NNW
ATLAS 2AS CENTAUR R/B 4.0 22:01:04 10° WNW 22:05:02 27° W 22:05:02 27° W
Cosmos 2297 Rocket 3.9 22:13:45 23° ENE 22:13:45 23° ENE 22:15:57 10° NE
SL-16 R/B 3.6 22:18:45 34° ENE 22:20:13 39° NE 22:25:52 10° NNW
COSMOS 2406 3.9 22:15:21 10° WNW 22:28:26 - E 22:20:26 53° NNW
H-2A R/B 4.3 22:19:09 10° NNE 22:20:41 21° NNE 22:20:41 21° NNE
Cosmos 2315 Rocket 4.3 22:24:54 65° NNE 22:24:54 65° NNE 22:30:21 10° NNE
Cosmos 2263 Rocket 4.2 22:28:16 18° ENE 22:28:16 18° ENE 22:30:07 10° NE
Cosmos 2366 rocket 4.5 22:25:10 10° NNW 22:30:51 53° NE 22:30:51 53° NE
SL-8 Rocket 4.4 22:27:41 10° NNW 22:33:33 59° NE 22:33:33 59° NE
CZ-2D R/B 4.4 22:35:07 10° NE 22:37:40 14° ENE 22:37:40 14° ENE
Resurs 1-4 Rocket 4.4 22:35:54 10° NE 22:38:34 15° ENE 22:38:34 15° ENE
CZ-2C R/B 3.7 22:43:03 40° NE 22:43:09 41° NE 22:48:21 10° NNW
Meteor 1-11 Rocket 4.5 22:48:51 50° NW 22:48:51 50° NW 22:54:19 10° NNE
SL-16 R/B 4.3 22:57:45 10° WNW 22:59:24 16° WNW 22:59:24 16° WNW
Cosmos 1821 Rocket 4.4 22:59:46 10° NNW 23:06:03 56° ENE 23:06:07 56° ENE
IDEFIX/ARIANE 42P 4.4 23:06:18 10° NNE 23:09:46 22° ENE 23:09:46 22° ENE
Cosmos 2218 Rocket 4.2 23:05:28 10° NNW 23:10:53 66° NNE 23:10:53 66° NNE
Cosmos 2341 Rocket 4.2 23:07:41 10° NNW 23:13:12 69° NNW 23:13:12 69° NNW
Cosmos 2227 Rocket 3.2 23:20:26 38° ENE 23:20:26 38° ENE 23:23:58 10° NE
SL-12 R/B(2) 4.5 23:30:55 64° SSE 23:31:18 64° SSE 23:42:01 10° ENE
Cosmos 1898 Rocket 4.4 23:37:29 48° N 23:37:29 48° N 23:41:42 10° NE
Cosmos 1833 Rocket 4.2 23:33:36 10° NW 23:36:02 27° NW 23:36:02 27° NW
SJ 16-02 3.2 23:44:10 29° NNE 23:44:10 29° NNE 23:47:48 10° ENE
Cosmos 2082 Rocket 3.7 23:43:36 10° WNW 23:56:09 - ESE 23:46:06 27° NW
ADEOS II 3.7 23:46:23 10° NNE 23:50:41 25° E 23:50:46 25° E
Cosmos 2181 Rocket 4.4 23:53:29 52° E 23:53:29 52° E 23:59:20 10° NNE
